Wind_Speed
5 5 6 6 8 6 3 3 1 2 2 1 2 1 3 4 1 2 4 3 2 3 3 1 1 1 2 4 6 4 4 3 3 3 3 4 1 8 12 2 4 11 17 22 20 19 18 18 17 17 17 16 15 15 14 15 15 16 17 16 16 16 16 18 20 22 23 24 23 22 20 19 19 19 19 18 16 15 14 14 14 14 14 14 13 12 12 12 12 13 12 12 13 14 16 15 14
5 5 6 5 6 3 1 3 2 2 2 1 3 3 4 4 1 4 5 2 3 5 4 2 3 4 5 6 7 5 3 1 1 3 2 1 5 10 11 5 8 13 17 22 21 19 18 18 18 18 18 17 16 15 15 15 15 16 17 17 17 16 16 18 19 21 24 25 24 22 19 18 17 17 17 16 15 14 14 13 14 14 14 13 13 12 11 11 12 12 13 13 14 15 16 15 14
5 4 5 4 3 3 1 3 2 1 1 4 4 4 3 2 5 6 3 3 7 6 4 2 5 4 5 5 3 3 0 1 1 2 1 1 3 8 10 7 11 13 15 20 22 21 20 19 20 20 19 19 18 17 16 16 16 16 17 17 17 17 16 17 19 21 23 25 24 22 19 17 16 15 14 14 14 13 14 14 14 14 13 13 12 11 11 10 11 11 12 14 15 16 16 15 15
3 3 5 2 1 3 3 2 2 4 3 4 3 5 3 5 7 3 2 5 5 4 3 3 4 3 3 4 0 2 1 1 2 1 2 1 2 9 11 9 13 14 14 19 23 23 21 20 21 21 21 20 19 18 18 17 16 17 17 17 17 17 17 17 19 21 22 24 24 22 20 17 15 14 13 13 13 13 14 14 14 14 13 13 11 11 10 9 10 10 12 13 15 17 16 16 17
1 2 3 2 2 1 3 1 2 3 4 3 2 5 5 7 5 1 3 5 4 2 1 3 3 2 1 3 1 2 1 2 2 4 2 1 2 9 10 12 14 13 14 17 21 23 21 20 20 20 20 20 19 19 18 18 16 16 17 18 18 18 17 17 18 20 22 24 24 23 20 18 16 14 12 11 11 12 13 13 14 14 13 13 12 10 9 9 9 10 12 13 15 17 17 18 18
1 2 3 4 2 1 3 1 2 3 5 5 3 5 5 6 4 1 3 6 4 2 4 2 3 3 1 1 1 1 0 2 2 4 4 2 3 8 10 12 13 13 14 15 19 22 21 19 18 17 17 18 19 19 19 18 16 16 18 18 18 18 18 18 18 19 21 23 23 23 21 19 17 15 12 10 10 11 13 13 13 13 13 13 11 9 9 8 8 10 12 14 14 16 17 18 18
2 2 3 4 1 1 3 2 4 4 4 5 4 5 5 5 4 2 3 5 4 3 5 1 4 6 1 0 2 3 4 2 1 3 4 4 5 8 10 12 12 12 12 14 17 19 19 17 16 16 16 16 17 18 18 17 17 17 18 19 19 19 19 18 19 20 21 23 23 22 21 19 17 16 14 11 10 10 13 13 12 12 12 12 10 8 10 8 8 10 11 13 14 16 17 16 16
3 1 1 4 1 3 3 2 3 4 4 4 4 7 8 7 5 3 4 4 3 1 3 4 2 4 1 2 2 2 8 6 4 4 4 6 6 8 9 10 9 9 9 11 15 17 17 15 15 15 15 15 15 16 16 17 17 17 17 19 19 19 19 19 19 20 21 22 22 22 21 19 17 15 14 12 11 10 11 12 12 11 11 11 7 7 10 8 8 11 11 13 13 15 16 15 14
4 2 1 3 2 1 1 3 4 4 4 5 6 9 11 8 6 6 7 6 4 3 6 6 2 1 2 3 1 1 6 6 4 5 5 6 6 7 7 7 6 6 7 9 12 15 15 14 14 14 13 13 13 12 13 15 17 17 17 18 19 19 19 19 19 20 21 22 22 22 21 20 17 15 13 12 11 11 11 11 11 10 10 8 5 9 11 8 9 10 10 13 13 13 14 13 13
4 3 2 2 3 0 3 3 4 4 5 5 7 11 11 9 7 8 8 7 5 5 5 2 4 3 5 2 1 1 4 3 3 4 5 5 5 7 8 7 7 8 8 10 12 13 13 13 14 14 14 12 12 11 11 13 15 16 16 17 18 17 18 19 19 19 20 21 21 21 21 20 18 15 13 12 11 11 10 10 10 10 9 7 9 12 10 8 9 8 8 12 12 12 12 11 10
3 3 3 3 3 1 3 4 5 5 6 5 7 11 10 9 6 7 6 4 3 5 3 4 4 5 6 1 2 1 3 3 4 4 3 4 5 7 9 8 9 10 10 11 12 12 10 11 14 14 14 13 13 12 13 13 14 14 15 16 17 17 16 17 18 18 18 19 20 20 20 20 18 16 14 12 11 11 10 10 9 9 9 10 13 13 9 8 7 7 9 11 10 10 10 9 8
2 2 4 3 2 2 4 3 5 5 7 5 6 8 5 4 3 6 6 5 3 6 3 2 4 4 5 0 2 2 3 5 4 3 2 4 6 8 9 9 10 10 10 11 12 12 9 9 11 11 12 11 11 13 15 15 14 14 16 16 17 17 15 16 17 17 16 17 19 20 19 19 18 16 14 13 12 11 10 9 8 9 11 13 13 11 9 9 7 7 9 9 9 8 8 8 7
3 2 5 2 3 3 3 2 4 5 6 4 4 7 7 5 1 5 8 6 5 7 2 0 3 3 3 2 1 1 2 4 3 3 3 5 7 9 9 10 10 11 11 11 12 12 10 9 9 9 9 10 11 12 14 15 14 15 17 17 17 16 15 15 16 15 14 14 17 19 17 17 17 16 14 13 12 11 10 9 10 13 13 12 12 11 11 9 8 8 8 8 8 8 7 7 6
3 3 4 2 1 2 2 1 3 3 4 4 3 6 6 4 3 4 11 8 4 3 1 1 3 3 2 1 2 3 2 4 4 5 6 8 9 10 10 10 10 11 11 11 11 11 9 10 10 8 9 11 12 12 12 13 12 14 17 18 16 14 14 13 14 14 12 12 14 17 16 15 15 14 13 13 13 11 10 11 13 14 12 11 11 11 11 10 8 7 7 8 7 7 6 6 5
3 2 4 3 1 1 1 2 2 1 4 3 4 4 6 4 5 6 7 6 2 1 1 3 3 1 2 5 2 3 7 9 7 8 9 11 11 11 10 10 10 10 11 10 10 10 8 9 10 9 10 11 12 12 12 12 11 13 16 17 14 12 11 11 12 12 11 10 11 14 14 13 13 13 12 13 13 11 10 13 14 12 11 10 10 10 10 10 8 6 7 8 8 8 6 5 4
3 3 4 2 1 1 2 3 1 2 4 3 5 2 6 6 6 5 3 2 5 2 3 2 3 1 4 4 2 7 13 12 10 10 12 13 12 12 11 11 10 9 10 9 8 9 9 10 11 10 11 10 11 11 11 12 10 11 14 15 11 9 9 10 10 10 10 9 9 11 11 11 12 11 12 12 13 11 10 13 13 11 11 10 11 10 10 10 9 7 7 7 7 7 6 5 4
3 4 4 1 1 2 3 3 2 2 5 2 6 5 6 4 5 2 3 6 6 3 4 1 3 2 2 1 5 14 16 12 12 11 12 13 13 13 12 11 10 9 9 7 7 9 10 11 12 12 13 12 12 12 12 12 9 9 11 9 7 8 6 6 7 7 8 6 6 8 10 10 11 11 11 12 12 11 9 11 11 9 9 10 10 10 10 10 9 8 7 7 7 6 6 5 5
4 3 3 1 3 3 4 5 5 3 5 2 3 3 6 2 2 1 5 8 4 4 5 3 3 4 5 6 10 15 15 13 12 11 11 10 10 11 10 10 11 11 10 8 7 8 9 11 12 13 14 14 12 12 13 11 9 7 7 6 6 7 5 4 5 4 6 6 6 7 10 10 10 10 11 12 12 11 9 8 9 9 8 8 9 9 10 9 8 8 7 6 6 5 5 5 5
3 3 2 3 5 4 5 6 5 3 5 4 2 1 5 4 2 2 3 2 2 5 4 5 4 3 5 7 11 13 14 13 10 10 10 8 8 9 8 10 11 10 10 10 9 7 8 9 10 11 12 12 11 11 11 10 8 7 6 7 8 7 6 6 7 4 5 6 8 7 8 8 9 9 9 10 10 11 9 8 8 8 7 6 6 7 9 9 7 7 7 6 5 5 4 4 4
2 3 2 5 6 5 5 6 7 5 5 5 4 1 4 5 3 2 5 4 0 3 2 1 1 4 3 4 7 11 12 12 9 9 8 7 7 8 9 10 11 10 10 10 9 8 9 9 9 10 11 11 11 11 11 10 8 6 5 7 8 7 6 7 8 8 7 7 9 8 7 7 7 7 7 8 9 9 9 8 8 8 7 6 5 5 7 8 7 6 6 7 6 5 4 3 4
1 3 4 6 3 4 7 7 9 6 4 3 1 2 3 5 2 3 9 7 1 5 7 8 9 10 8 6 5 9 9 9 8 7 7 7 7 7 10 11 12 12 11 11 11 10 10 9 10 10 11 12 11 11 10 8 7 6 7 8 7 6 6 8 9 9 8 8 9 8 7 6 6 6 6 7 7 8 7 8 8 9 9 8 7 6 7 7 6 7 6 6 6 6 5 4 4
1 2 6 6 4 3 7 5 7 4 2 2 2 1 4 3 2 7 11 9 5 6 8 8 7 10 10 7 6 7 6 6 7 7 7 7 7 8 10 12 13 13 12 11 11 11 11 10 10 10 11 12 11 11 9 7 7 9 9 9 8 7 7 8 9 7 7 7 7 5 5 5 5 4 4 5 5 7 7 7 8 8 9 10 9 8 7 7 7 7 7 7 7 7 6 6 6
2 4 3 5 5 6 6 2 4 2 2 3 2 1 3 5 3 6 5 4 6 4 5 4 3 6 7 6 7 7 7 7 7 8 9 10 10 11 12 13 14 14 13 11 10 11 11 11 10 9 9 11 10 10 9 9 8 8 8 8 8 9 8 7 7 6 4 4 3 3 3 3 4 3 4 4 4 5 6 8 9 8 9 11 12 11 9 9 9 8 8 8 8 8 8 8 8
2 4 4 5 6 8 7 5 6 5 6 6 4 2 3 6 5 4 3 4 6 1 6 6 5 7 7 6 6 7 8 8 8 8 9 11 11 12 13 13 14 14 13 11 10 11 12 11 11 10 9 9 10 10 10 8 7 6 6 7 8 9 8 7 6 4 3 3 2 2 3 1 1 2 4 5 5 6 7 8 9 9 10 11 12 12 12 11 10 9 9 8 8 8 9 9 9
3 5 5 4 5 7 7 6 8 9 8 4 3 2 6 8 5 5 4 6 4 2 7 6 6 7 6 5 6 8 8 8 8 8 9 9 10 11 12 13 14 13 12 12 11 12 12 12 11 10 9 8 9 9 8 7 7 6 7 8 8 8 8 8 6 4 4 3 3 1 1 1 1 3 6 7 8 8 9 10 11 11 11 12 12 12 11 10 9 9 9 8 7 7 7 7 7
5 6 4 4 6 7 6 7 9 8 4 1 3 2 4 6 2 2 5 5 3 3 7 6 6 6 5 4 5 7 6 6 8 10 10 9 10 11 11 11 12 12 11 11 12 13 12 11 11 10 9 8 7 7 8 8 8 6 6 8 9 9 9 9 7 5 4 3 1 1 3 3 3 5 7 8 9 10 10 10 11 13 14 13 13 12 10 10 10 10 9 9 8 7 7 6 6
5 5 5 7 8 8 4 7 8 4 2 5 6 3 4 3 1 2 6 4 3 4 6 4 5 5 4 4 4 5 5 7 9 11 11 10 10 11 10 10 11 12 12 11 12 13 12 10 10 10 9 9 8 7 8 9 8 6 6 7 8 8 9 9 8 7 7 6 4 1 3 4 5 7 8 8 8 9 10 8 9 11 14 16 15 12 11 11 11 11 10 9 8 8 7 6 6
3 2 5 7 7 6 4 6 6 2 3 6 8 5 2 1 1 5 6 6 5 7 6 4 5 4 3 4 3 4 5 8 10 11 12 11 12 12 11 10 12 13 11 12 13 13 12 10 10 10 9 8 7 7 7 8 8 6 6 6 6 7 8 9 9 9 8 6 5 5 4 4 6 6 5 5 5 7 8 8 10 12 10 12 14 12 12 11 11 10 9 8 8 8 7 6 6
1 2 3 8 7 5 5 4 3 1 2 5 10 5 1 3 5 6 5 7 5 6 6 4 5 3 3 4 4 4 5 8 9 10 11 12 13 12 11 11 13 13 11 12 14 14 12 11 10 10 8 7 6 5 6 6 6 6 6 6 6 7 7 8 8 8 7 6 5 5 5 5 6 6 4 3 2 3 4 5 7 7 7 7 8 8 9 9 9 9 8 7 7 7 7 6 5
3 1 1 5 7 5 5 1 2 3 2 5 8 1 4 7 9 6 5 9 8 7 6 5 5 4 4 4 4 4 6 7 8 10 12 12 13 14 13 12 14 14 13 14 16 15 13 12 10 9 8 7 6 6 5 5 5 6 7 7 7 7 6 5 5 5 5 6 6 6 5 5 5 5 5 4 2 2 2 3 3 2 4 8 6 5 5 5 5 5 5 5 6 6 7 7 6
3 2 1 3 2 4 6 2 3 3 2 4 7 3 6 8 10 6 7 10 11 10 8 6 5 5 5 5 4 4 5 7 8 9 12 12 14 16 15 14 15 15 15 16 17 15 14 12 10 9 9 8 7 7 6 6 5 5 6 7 7 6 5 4 4 5 5 5 5 6 6 5 4 4 3 2 0 1 1 1 1 2 3 6 6 7 5 3 2 2 3 3 4 5 5 6 6
3 1 3 3 1 4 9 4 5 4 2 3 7 3 5 7 8 7 9 9 11 11 9 8 7 7 6 5 5 5 5 6 8 10 11 13 15 16 14 14 15 15 15 16 16 16 14 12 10 9 9 9 8 7 6 6 5 5 5 5 6 5 4 4 5 4 4 5 5 6 6 5 4 2 2 1 2 2 3 2 1 2 4 5 6 7 9 7 2 2 2 3 3 3 4 4 5
4 1 3 3 0 3 5 2 3 3 0 1 3 3 3 5 7 7 8 9 10 9 9 9 7 7 6 5 4 5 6 6 7 11 12 14 15 15 13 14 17 15 14 16 17 17 15 13 11 11 11 10 9 9 8 7 7 7 6 6 6 6 4 4 4 4 4 6 5 4 5 5 4 3 2 1 0 1 3 3 1 2 4 7 6 6 9 11 9 4 2 3 4 5 5 5 5
4 2 0 3 2 2 3 4 3 1 3 2 1 3 5 6 6 9 10 11 10 9 10 9 8 7 6 6 5 6 6 6 7 10 14 15 15 16 14 14 17 16 14 15 16 17 16 15 14 13 13 12 11 11 10 9 8 8 8 8 7 6 5 4 5 5 5 4 3 3 2 3 2 2 2 1 2 2 1 1 2 3 4 6 6 5 7 11 11 8 6 5 7 8 7 7 6
3 1 1 3 3 2 3 5 3 3 1 2 2 4 8 7 5 10 11 12 12 11 10 9 8 8 8 7 7 7 6 7 8 10 12 14 14 16 15 14 17 17 14 14 13 15 16 16 15 14 14 13 12 11 11 11 10 9 8 8 7 6 6 5 5 5 4 3 2 2 1 1 1 1 0 1 2 2 3 3 4 5 5 6 5 4 7 9 8 7 7 7 7 8 7 6 6
5 4 2 2 3 4 5 6 5 2 3 4 4 6 7 6 7 9 10 9 9 9 7 7 7 7 7 7 7 7 7 8 9 9 10 13 14 15 16 15 16 17 15 14 13 14 16 17 16 15 14 12 12 12 12 12 11 10 9 8 7 7 6 5 5 4 3 2 1 1 1 2 1 1 1 2 2 2 4 5 5 7 7 6 5 3 5 5 6 8 7 7 6 6 5 5 6
4 3 2 3 2 5 7 7 6 3 0 6 5 6 6 6 10 11 9 8 8 9 8 8 8 8 8 9 9 8 8 8 7 8 9 12 13 14 15 15 15 16 16 15 14 15 16 17 17 16 15 14 13 13 13 12 11 10 9 8 7 7 6 5 5 6 5 3 2 2 1 2 3 3 3 3 2 2 4 5 6 7 9 8 6 3 4 5 6 6 5 4 4 5 6 6 7
3 3 2 3 3 6 8 6 6 2 3 5 1 2 5 6 10 9 8 10 12 13 13 12 12 10 8 9 10 8 8 5 4 7 9 12 12 13 15 15 16 17 17 16 15 16 16 16 17 17 16 15 14 13 12 11 10 9 8 8 7 7 7 5 5 5 4 4 3 2 2 2 2 3 3 3 3 3 3 4 4 4 5 6 5 3 1 3 4 4 4 4 4 5 6 7 9
3 2 1 3 3 4 7 6 5 1 3 4 3 2 5 6 8 8 12 15 14 13 13 12 12 12 11 11 10 9 8 6 6 7 9 12 13 13 14 15 15 16 17 17 15 16 16 15 15 16 17 16 15 13 11 10 9 7 6 7 7 7 7 6 5 5 4 3 2 2 2 2 2 3 3 3 3 3 3 3 4 5 5 4 3 1 1 1 1 3 5 6 5 5 5 5 8
2 2 1 4 4 1 4 5 5 3 1 3 3 1 5 4 3 5 11 11 6 7 9 6 7 10 10 10 8 8 9 9 8 8 8 11 13 14 15 16 15 15 18 18 17 17 17 15 14 14 15 16 15 13 11 9 9 7 6 6 6 6 7 7 6 5 4 2 1 1 1 2 2 2 2 2 2 2 2 2 3 4 5 6 4 2 2 2 1 1 2 3 4 4 2 2 5
3 4 4 4 4 3 5 5 6 4 2 3 4 4 5 3 2 6 6 3 5 4 7 7 7 7 6 5 6 7 8 8 9 9 8 10 13 15 15 16 16 17 19 20 19 19 17 15 13 13 13 14 14 14 12 10 9 8 8 8 8 7 8 7 6 5 4 2 2 2 2 2 2 2 2 1 1 1 2 3 4 6 6 7 6 5 5 6 5 4 4 2 1 0 0 1 2
5 3 6 7 5 4 4 5 5 5 4 4 4 4 5 3 2 6 2 4 8 4 6 11 8 5 5 7 7 7 6 6 7 8 8 8 10 13 15 16 17 18 19 21 20 20 18 16 13 12 12 12 13 13 12 11 9 9 9 9 9 9 8 6 5 5 5 4 4 4 4 4 4 3 3 2 3 3 3 3 3 5 6 6 7 7 8 8 8 8 7 6 5 5 3 3 3
3 3 3 4 3 2 3 2 2 2 3 4 3 3 4 4 3 5 3 7 11 5 6 10 7 6 8 7 7 7 7 7 7 7 7 8 10 13 15 16 17 18 19 20 20 20 19 16 14 13 13 12 12 13 12 11 10 10 9 8 8 8 8 7 6 6 6 6 6 6 6 6 6 6 6 5 5 5 5 4 4 4 5 6 6 6 8 9 9 8 8 7 6 6 6 5 6
2 4 1 2 2 3 3 1 2 2 3 4 4 4 1 3 4 5 1 4 6 6 8 8 6 9 9 7 7 7 8 8 7 8 8 9 11 13 13 13 15 16 18 19 20 20 19 17 15 14 14 13 12 12 12 11 11 11 10 9 8 7 7 7 7 7 7 6 6 6 6 6 6 6 6 6 5 5 5 6 6 5 5 6 6 6 7 7 7 7 6 6 5 6 6 6 6
4 6 1 2 2 3 2 2 1 1 1 4 5 2 1 4 5 4 2 4 3 8 10 9 9 10 10 9 9 8 8 8 8 9 9 9 11 13 13 13 14 16 17 18 20 20 19 17 15 15 15 14 13 12 12 12 12 11 10 10 10 8 8 8 7 7 7 6 5 5 4 4 4 4 4 5 4 4 4 5 5 5 6 6 7 7 7 6 6 6 6 5 5 5 5 5 5
6 5 2 1 2 2 3 3 2 2 2 4 6 1 1 5 4 3 3 3 3 7 8 9 10 10 11 11 10 8 7 8 9 8 8 10 12 14 14 13 14 16 17 18 19 19 18 17 16 16 16 15 14 14 14 13 12 12 11 11 11 10 9 8 8 7 6 5 5 4 4 4 4 4 4 4 4 4 4 5 5 5 6 6 6 6 6 6 6 6 6 6 5 5 6 5 5
4 4 5 4 5 4 3 2 3 2 2 6 6 2 3 2 4 0 1 0 3 5 5 6 7 9 12 11 10 10 8 8 8 8 7 10 12 13 14 14 15 18 18 18 19 19 19 19 18 18 17 16 15 15 14 14 13 12 12 11 10 10 9 8 8 7 6 5 5 5 6 6 6 6 6 5 5 5 5 6 6 7 7 7 6 5 5 5 5 5 5 5 5 6 6 6 6
3 3 3 4 4 3 3 4 2 1 4 5 4 1 4 2 3 3 3 4 4 3 5 7 7 8 10 11 10 10 9 8 8 7 7 8 9 12 14 15 17 19 19 20 21 21 21 21 20 19 18 17 16 15 15 14 14 13 12 11 11 10 9 8 8 7 6 6 6 6 6 6 7 7 7 7 7 7 6 6 7 7 7 6 5 5 5 5 5 5 6 6 6 6 6 7 7
5 3 4 5 3 3 2 2 0 2 4 4 3 3 2 3 2 6 7 7 8 6 6 9 10 9 8 9 8 7 7 8 8 8 8 7 8 10 14 17 19 21 22 22 23 23 23 23 22 21 20 18 17 16 16 15 15 14 13 12 12 11 9 8 8 7 7 6 5 5 5 6 7 7 7 7 6 6 6 6 6 6 6 5 5 4 4 4 5 6 6 7 7 8 8 8 8
5 2 3 3 2 2 2 3 1 1 3 3 4 3 2 2 2 7 8 7 7 7 7 7 9 10 9 7 5 6 6 7 7 7 8 8 9 12 16 19 21 22 24 24 25 25 25 24 23 21 21 20 18 17 17 17 16 14 14 13 12 11 10 9 8 8 7 5 4 4 5 5 6 7 7 7 6 6 5 5 5 5 5 5 5 4 3 3 4 5 6 7 7 7 8 8 8
2 0 3 4 3 3 1 2 1 2 3 4 4 2 1 1 1 5 6 6 6 9 9 9 10 10 8 5 2 3 5 6 6 6 7 7 9 12 14 13 15 16 19 22 24 25 25 25 24 23 22 22 20 19 18 18 17 16 14 13 12 11 10 9 8 7 5 4 4 4 5 6 6 6 7 6 5 5 4 4 5 5 6 6 6 6 5 4 5 6 6 6 6 6 6 6 6
2 1 4 2 3 4 2 1 2 1 2 3 2 1 1 2 1 5 8 9 12 13 13 14 15 14 11 8 6 3 2 3 3 4 4 4 5 8 8 8 9 10 13 17 21 24 26 26 25 25 24 24 22 21 20 19 18 17 15 14 13 11 11 9 7 6 5 4 3 3 4 5 4 5 4 4 4 4 4 4 5 5 6 7 7 8 8 8 8 8 8 7 7 7 6 6 6
1 2 1 1 1 4 3 0 0 1 1 2 2 1 2 1 1 7 12 12 14 14 13 14 13 14 13 10 9 7 5 4 1 2 4 4 5 7 8 10 12 13 17 20 22 24 26 27 27 26 25 25 24 23 22 20 19 18 16 14 13 11 10 8 7 6 4 3 2 3 4 4 3 3 2 2 2 3 4 5 6 6 6 7 8 8 9 9 9 10 9 9 8 7 6 6 6
2 2 1 1 3 3 2 1 1 1 1 3 2 2 1 2 2 7 12 11 12 12 11 10 11 12 12 10 10 10 8 5 2 1 3 5 8 11 9 8 10 17 24 27 26 26 26 27 28 27 27 27 26 25 23 21 20 19 17 15 13 11 10 8 7 6 4 3 2 3 4 3 2 2 1 1 2 3 4 5 5 5 5 6 7 8 8 9 9 9 9 8 7 6 5 4 3
4 0 1 2 2 1 1 1 1 0 1 2 3 1 0 1 2 6 10 9 11 11 10 9 10 10 9 9 10 10 9 7 5 3 1 2 5 8 10 10 14 21 22 22 24 25 26 27 27 27 28 28 27 25 24 23 20 18 17 15 13 11 10 9 7 6 5 3 1 3 4 3 3 3 2 1 2 2 3 4 4 4 5 6 7 9 9 10 11 10 9 8 7 6 5 4 2
3 3 3 2 2 3 1 1 2 1 1 1 3 2 0 1 2 4 7 8 9 9 9 9 8 6 5 6 7 8 8 7 6 5 3 2 2 6 11 13 18 22 19 19 22 24 26 27 27 26 25 24 24 24 24 23 20 18 16 14 13 12 11 10 9 7 6 4 2 3 4 4 4 4 3 3 3 2 3 3 4 5 6 7 9 10 10 11 12 11 10 9 7 6 6 5 4
4 4 5 4 3 1 1 1 1 1 1 1 0 1 2 2 2 4 5 7 6 7 7 8 8 7 5 4 5 6 7 6 7 6 3 2 3 8 9 6 10 15 16 19 21 24 26 26 23 21 21 22 23 23 23 22 20 18 16 15 14 13 11 11 10 9 7 5 3 3 4 5 5 5 4 4 4 3 3 3 4 6 7 8 9 10 11 12 12 11 10 9 8 7 6 6 6
2 2 2 2 2 2 2 2 1 1 0 1 1 1 3 2 2 3 4 6 6 6 6 7 9 9 7 5 4 4 4 5 6 6 5 5 4 4 5 6 9 13 15 16 18 21 23 20 18 18 20 21 20 21 21 20 18 17 16 15 14 14 13 12 12 11 9 6 4 4 4 6 7 6 5 4 5 4 3 3 5 6 8 9 10 11 12 12 11 9 8 7 7 7 7 7 7
Wind_Direction
355 348 356 347 338 336 342 66 56 325 79 129 271 211 254 241 229 290 292 318 332 271 235 229 252 149 127 146 152 139 95 142 174 136 207 260 16 163 177 190 148 165 168 169 171 173 177 179 182 178 174 170 167 165 163 162 158 155 150 145 141 139 140 142 144 144 144 144 143 142 142 144 144 144 144 144 142 141 140 138 136 132 129 128 126 125 125 128 130 133 132 130 133 135 133 132 131
343 342 355 342 346 359 262 75 89 315 47 254 268 180 253 300 333 252 252 260 223 245 240 167 70 64 84 113 119 86 52 29 196 155 223 249 113 159 179 205 174 168 171 173 172 173 178 182 186 184 180 177 173 170 168 166 161 156 151 147 144 142 142 144 146 144 144 143 142 141 142 143 144 144 143 144 141 139 138 136 134 131 132 132 130 130 132 133 134 135 136 137 138 139 135 132 130
339 343 356 337 347 36 61 44 98 117 146 233 261 232 276 309 243 243 246 245 237 258 275 139 73 39 84 89 67 75 124 22 66 132 167 143 139 166 176 192 177 171 176 177 178 178 182 187 190 189 186 183 180 177 172 168 163 158 153 150 147 145 145 147 147 146 146 145 143 143 143 142 143 143 143 143 141 141 138 136 134 131 132 133 132 133 136 138 139 141 143 142 139 137 133 129 129
341 351 353 357 26 33 63 44 139 139 194 227 263 257 230 222 242 264 293 277 271 301 295 141 81 334 113 123 51 87 182 307 18 74 151 268 207 177 173 184 177 175 181 182 184 184 186 190 193 191 188 187 184 179 174 169 166 160 156 154 150 148 148 150 150 151 150 148 146 145 144 143 143 142 145 144 144 145 142 139 135 131 132 134 135 135 139 141 143 146 146 143 138 134 130 127 126
345 9 357 61 91 36 101 83 113 151 214 199 237 252 218 227 246 296 283 291 311 336 64 116 96 310 81 116 138 106 226 285 8 40 71 4 181 175 172 177 177 178 183 186 188 187 188 192 196 193 189 188 185 179 173 171 168 164 161 157 154 152 152 153 154 155 154 152 150 148 147 145 143 143 145 143 145 145 143 143 137 130 132 134 135 139 139 143 150 148 146 143 136 132 131 130 126
135 74 45 65 96 157 119 186 183 213 229 176 224 252 218 233 237 218 279 297 315 37 70 73 138 140 54 38 100 110 3 288 315 17 29 60 156 169 167 172 176 179 183 188 190 189 189 192 194 192 190 187 186 180 174 173 171 168 165 161 158 156 155 157 159 159 158 157 155 152 150 147 145 144 143 142 145 147 146 144 141 134 133 134 134 143 140 145 156 144 142 140 135 135 136 134 130
117 115 34 63 59 27 116 210 214 238 253 185 222 266 240 237 235 231 273 289 302 24 51 119 153 118 111 185 112 63 43 4 329 30 52 118 160 164 165 173 176 179 184 189 191 192 190 190 191 191 192 189 185 180 176 174 173 171 168 164 161 160 159 159 161 163 162 161 160 156 152 149 146 144 145 146 148 152 151 144 142 137 135 136 134 149 146 150 154 137 138 137 135 138 140 137 134
85 119 15 93 91 6 111 247 250 225 256 227 238 264 262 253 249 248 215 234 255 301 95 181 208 94 120 28 96 79 53 52 84 87 105 134 154 156 166 172 169 174 183 189 191 194 191 190 190 192 191 188 187 184 180 176 173 173 171 167 164 164 162 160 162 165 166 166 164 160 154 150 147 145 145 146 150 154 151 145 143 137 137 137 129 149 150 156 152 136 135 137 134 137 140 137 134
52 47 59 93 136 10 34 298 279 238 252 253 252 258 264 257 240 237 216 221 231 178 160 186 289 79 150 43 50 231 44 53 97 102 109 126 141 144 149 149 152 162 171 188 192 193 193 190 189 195 194 188 188 186 183 179 175 171 169 168 167 167 165 161 160 164 169 170 169 163 156 151 149 146 143 144 149 151 149 147 143 138 143 139 128 143 152 166 155 137 135 138 136 135 138 138 137
37 27 138 83 117 44 318 292 274 257 251 251 264 263 265 262 230 225 224 226 215 166 175 148 65 117 132 96 243 273 28 48 111 94 95 119 137 139 133 131 148 164 171 183 186 189 194 191 189 195 197 197 197 193 198 193 180 170 167 169 169 167 166 163 158 160 169 174 173 166 157 152 150 147 144 144 147 149 148 145 143 147 150 141 141 147 159 171 156 140 132 133 135 134 138 142 144
38 351 101 83 84 117 260 254 270 267 274 289 281 269 262 259 228 216 209 190 182 144 154 56 95 141 108 112 231 99 48 66 108 83 65 111 135 140 134 135 149 161 172 177 179 185 190 189 191 194 196 203 205 202 208 202 187 177 173 174 172 169 168 165 158 157 166 175 175 167 159 153 151 149 148 147 148 148 147 147 152 157 152 143 148 153 162 165 152 140 131 127 130 134 139 147 154
86 337 65 92 130 188 211 226 274 284 296 302 279 287 304 283 203 187 165 133 121 109 98 81 160 152 95 227 238 125 61 61 95 95 70 109 134 140 138 139 147 157 165 173 179 183 185 187 192 199 201 202 202 204 207 202 198 187 179 179 176 173 172 167 160 158 163 171 175 169 161 155 152 151 151 151 149 148 149 154 156 151 146 145 148 152 158 159 148 135 128 126 132 139 143 149 162
120 141 87 121 179 181 189 208 272 305 305 276 260 304 351 4 29 153 129 103 98 108 84 249 160 102 95 215 299 347 65 72 101 108 101 109 127 140 141 137 141 148 155 170 180 180 185 188 190 198 200 199 199 205 205 200 199 190 184 185 181 177 174 167 160 158 163 168 172 169 163 156 152 151 152 151 149 149 151 150 146 143 146 148 148 149 153 153 146 137 126 124 133 143 147 147 163
137 151 112 148 213 164 173 232 284 322 289 267 280 318 7 6 337 102 113 100 70 119 167 36 104 80 76 165 318 301 131 124 117 107 104 111 124 132 136 138 137 138 147 167 175 175 184 189 189 190 189 188 191 194 197 198 197 192 188 187 184 180 174 165 158 158 167 172 168 165 164 158 151 149 151 151 148 149 149 146 146 146 150 153 152 154 155 153 146 142 136 133 138 143 146 146 160
139 132 92 113 319 325 217 231 250 254 272 312 317 330 41 1 345 56 92 116 103 296 128 60 51 53 173 158 212 236 143 136 121 111 110 113 119 121 128 137 137 129 139 161 165 164 174 182 183 185 187 186 188 186 190 194 198 198 189 186 184 178 176 168 161 159 167 180 171 161 164 161 151 148 149 150 147 146 148 149 150 150 156 161 161 163 165 163 156 153 151 147 145 144 144 140 148
122 107 69 84 268 317 238 225 211 246 258 329 328 349 62 352 5 54 338 117 125 22 40 58 354 328 179 174 171 131 131 132 121 116 114 113 114 114 118 128 135 128 134 157 162 164 169 173 175 179 185 186 189 188 190 189 192 200 188 185 183 173 178 172 165 162 163 187 185 159 159 160 151 148 148 149 147 143 148 155 158 159 165 173 172 173 174 173 167 163 164 157 150 146 139 129 127
73 77 68 54 215 204 219 220 182 210 260 327 360 26 79 354 360 50 348 53 96 57 40 32 329 353 128 117 113 122 127 128 121 118 112 109 108 107 106 113 124 121 128 149 160 174 181 179 179 182 184 185 190 192 194 189 186 198 189 181 178 169 173 169 166 161 151 180 207 166 158 160 153 150 148 149 149 144 148 159 168 171 174 184 185 180 178 178 175 169 169 166 156 146 138 126 117
64 81 101 186 206 204 196 202 203 214 276 329 45 54 98 89 355 1 32 38 38 56 31 358 4 16 57 90 118 123 126 123 120 119 112 106 106 105 102 108 114 113 123 139 151 174 190 191 189 189 190 189 191 191 192 189 181 192 183 163 172 173 168 155 152 156 145 171 222 192 163 162 158 153 148 151 154 148 148 157 170 181 185 194 194 185 179 178 177 174 173 174 164 153 141 130 121
100 115 126 218 207 219 207 210 236 233 276 316 18 102 122 154 171 73 83 59 9 75 17 349 20 15 60 98 120 124 124 118 116 118 115 107 110 114 111 113 117 119 129 140 147 165 188 196 191 185 186 186 184 181 180 178 176 182 172 164 176 170 156 149 143 160 177 186 214 207 173 166 161 155 151 156 159 153 153 157 163 181 197 203 191 178 178 178 176 175 178 183 178 167 152 140 138
164 130 150 242 217 237 242 228 243 227 266 318 346 32 137 189 201 83 123 124 44 143 160 92 218 233 159 134 131 128 124 115 116 115 114 113 117 128 127 126 130 137 144 148 150 159 177 184 180 177 175 175 177 177 174 171 175 178 162 155 167 159 142 144 149 166 181 199 212 204 183 171 164 159 155 160 165 161 162 167 167 176 196 207 193 178 183 184 181 180 186 194 196 190 175 169 163
173 133 181 241 202 240 253 227 246 245 249 270 35 51 163 209 237 128 136 121 286 237 208 187 191 198 179 186 155 129 125 121 122 116 121 130 131 140 140 139 140 146 150 150 154 158 166 172 177 178 175 174 177 181 175 168 164 144 122 127 149 147 134 141 156 170 176 201 217 205 185 176 172 167 162 166 171 174 176 181 183 184 193 205 205 197 199 199 194 192 200 206 209 209 201 199 196
164 218 201 220 155 240 264 222 245 244 193 208 111 135 179 162 152 161 147 144 210 229 215 210 192 184 175 174 154 131 135 137 137 135 144 149 147 151 152 149 145 150 153 148 153 159 161 164 172 176 177 179 183 183 171 156 146 131 126 133 145 144 142 153 165 175 179 201 220 212 188 176 174 174 178 183 184 191 196 195 196 197 199 206 212 210 210 211 213 212 212 216 222 225 219 217 220
209 269 241 231 193 231 270 244 251 231 185 219 154 201 146 109 155 192 163 174 240 241 168 176 158 160 149 136 144 153 163 167 162 156 163 164 157 155 157 154 147 150 154 153 155 159 161 159 161 167 173 180 180 176 166 156 150 145 143 140 143 146 150 166 175 172 176 193 205 223 213 178 163 188 209 213 215 212 210 209 206 208 207 209 215 216 218 221 226 228 225 230 236 236 232 228 228
193 272 286 257 215 224 260 272 277 276 255 236 137 111 162 149 165 197 258 276 266 266 114 122 117 122 119 121 148 169 178 181 179 172 173 172 164 158 155 155 153 150 150 157 162 158 161 161 159 163 168 175 173 170 168 164 161 160 159 151 152 156 162 179 182 168 170 164 147 214 230 192 128 229 243 239 237 234 231 226 219 219 216 215 220 222 222 224 233 238 239 244 245 242 239 237 236
207 234 266 262 225 233 260 273 275 269 259 250 124 155 208 205 164 152 251 295 293 130 110 113 113 111 119 132 154 175 187 187 183 176 175 174 163 156 153 152 154 153 151 157 163 158 160 163 163 165 164 169 174 177 180 179 177 173 176 177 175 176 182 187 179 171 173 148 128 151 248 330 357 253 249 246 243 241 242 242 237 231 225 220 222 227 228 226 232 241 245 250 249 247 247 251 256
221 213 248 263 265 265 267 264 265 269 270 169 163 175 203 230 155 125 260 277 284 122 110 113 122 128 132 134 157 177 192 187 179 171 167 164 156 152 149 148 152 156 156 158 160 157 158 163 166 169 167 167 170 176 184 183 180 181 190 194 193 192 193 189 182 188 192 175 164 30 357 329 298 270 257 254 250 244 242 246 248 239 233 228 225 227 232 231 233 243 250 254 253 250 253 260 269
204 204 256 255 270 284 267 256 262 286 283 174 158 138 172 226 111 215 253 222 191 126 114 116 128 149 144 136 160 178 198 191 178 163 156 155 155 154 150 151 158 160 159 160 160 154 153 160 167 173 174 177 175 175 183 188 190 199 206 203 200 201 199 194 191 200 211 219 224 251 326 303 283 275 270 268 263 256 247 252 271 257 235 224 222 225 229 233 236 241 248 252 252 250 251 257 266
195 206 290 285 295 291 252 257 271 298 252 183 131 98 153 290 309 218 206 171 168 144 141 146 143 166 152 145 169 184 200 191 178 165 161 164 164 161 158 161 163 162 162 161 160 152 148 156 164 168 173 178 177 177 183 189 198 203 203 194 194 200 200 199 197 199 205 209 206 194 206 240 253 264 276 281 275 272 261 260 280 284 268 234 221 220 222 226 232 236 240 242 247 252 252 258 271
221 136 289 303 343 322 265 262 265 164 224 166 122 86 285 235 253 239 175 148 146 139 157 173 166 181 165 166 185 190 200 190 180 176 173 172 171 167 162 166 165 163 163 159 156 151 150 156 159 160 162 164 160 160 167 174 185 187 187 184 190 201 201 204 202 196 191 187 195 196 192 208 232 249 271 287 289 292 269 264 279 289 314 299 247 228 224 226 231 232 235 237 242 251 255 263 278
292 62 140 308 358 342 291 302 112 140 196 149 132 168 256 237 253 251 159 144 138 148 182 188 178 184 180 187 195 197 204 198 190 187 182 179 180 174 165 167 167 163 158 154 152 151 152 152 154 155 151 151 147 146 153 156 163 171 181 186 192 200 202 210 207 190 185 187 202 218 224 226 236 254 267 270 280 318 283 273 296 290 320 329 313 280 245 227 233 234 236 245 252 259 263 271 280
311 326 55 355 355 289 294 296 134 146 212 142 140 225 250 253 262 226 169 160 157 170 191 189 187 189 188 195 200 208 211 211 211 197 190 189 189 180 169 168 169 163 155 153 154 153 153 154 158 160 153 151 149 147 151 150 151 160 171 181 186 191 191 186 170 163 165 169 178 194 212 221 221 230 233 225 152 51 354 266 310 339 314 319 318 313 304 267 232 233 243 243 254 267 277 285 290
15 334 305 338 121 272 299 288 170 174 306 110 137 212 260 265 254 200 172 172 170 178 188 188 194 191 190 199 201 215 221 224 228 215 203 198 193 183 172 169 171 165 155 153 153 151 150 154 160 161 156 157 154 150 150 147 142 144 150 159 162 162 164 158 148 142 142 146 146 152 156 156 165 168 158 114 67 68 47 52 62 13 341 320 307 310 322 320 295 244 260 274 280 281 292 298 295
357 71 255 279 300 293 310 316 204 195 3 57 153 191 251 261 231 191 175 178 177 184 191 193 198 193 193 203 204 214 222 231 237 226 210 201 194 185 174 169 172 168 157 152 150 147 144 142 146 143 141 145 144 140 137 134 132 129 127 129 132 134 142 146 142 146 151 156 154 149 140 123 114 98 98 102 27 52 57 57 39 359 352 341 326 303 315 327 332 343 6 354 343 336 325 320 313
314 16 267 262 257 279 306 315 303 92 131 208 250 212 243 263 207 181 185 183 180 189 195 195 193 192 200 205 210 217 220 226 233 225 209 200 193 185 178 170 172 172 159 152 149 147 141 136 136 130 126 126 125 125 124 124 125 123 119 116 121 128 133 129 125 139 147 147 132 115 127 120 112 95 85 159 251 284 345 351 293 284 303 325 330 333 342 339 336 347 11 14 8 1 352 349 341
225 255 18 301 298 295 279 277 294 27 36 200 159 230 258 274 224 191 194 186 185 196 195 194 191 191 202 204 212 217 221 232 232 224 208 199 193 185 180 173 172 171 160 153 152 151 143 137 135 129 125 124 123 125 125 128 131 131 127 121 122 121 123 126 126 136 142 139 124 116 170 191 151 92 60 251 271 300 300 296 287 267 268 288 297 341 10 3 3 9 5 360 358 355 355 3 356
170 187 164 230 288 287 259 257 263 27 345 268 199 231 249 238 225 208 200 189 192 203 191 189 195 194 202 209 217 217 220 235 236 227 209 198 195 187 182 176 171 169 163 158 159 159 151 144 141 135 133 134 134 138 136 139 142 140 134 126 124 120 120 124 119 124 141 156 158 171 238 255 276 310 303 290 295 286 273 271 258 245 253 282 303 6 28 16 29 31 15 3 359 358 354 357 355
144 165 195 214 224 278 273 267 263 160 227 276 220 227 244 212 222 214 191 184 195 207 199 196 200 196 201 208 213 216 220 234 239 229 211 200 198 191 184 178 172 172 169 165 164 166 161 155 151 146 144 145 146 148 147 147 146 140 135 129 123 122 124 123 114 113 121 119 91 65 31 333 314 312 304 303 306 281 262 253 244 243 253 269 289 355 44 48 41 29 18 12 10 9 1 3 0
168 179 228 270 216 257 277 272 278 181 178 274 254 246 261 220 224 212 171 184 203 203 198 198 200 197 202 210 209 212 219 227 228 223 211 201 199 195 189 181 177 178 176 173 170 171 171 166 159 153 149 151 151 152 153 150 145 138 136 135 132 129 129 131 131 125 121 115 95 67 50 30 353 336 323 311 298 284 274 257 246 248 252 252 252 267 9 50 31 2 344 345 0 5 3 15 9
181 145 135 290 252 272 293 290 309 23 172 273 339 313 274 246 233 208 182 196 207 203 201 203 200 195 199 206 206 206 209 207 211 216 209 202 199 198 195 188 183 181 179 179 175 173 176 174 169 160 154 154 155 157 156 152 147 143 141 144 144 138 136 137 137 135 134 131 111 89 55 26 4 351 340 333 323 312 308 293 284 286 291 299 287 251 187 174 265 280 283 294 310 331 347 12 9
183 155 165 276 272 273 286 293 328 359 200 290 335 311 292 312 313 239 210 212 218 204 212 228 218 208 208 208 208 208 205 203 211 214 205 200 199 201 202 195 189 184 181 183 180 178 177 177 178 172 163 161 162 164 163 158 154 152 152 157 158 148 142 143 140 134 133 133 115 95 25 3 354 349 345 335 341 1 12 12 12 358 347 348 347 1 65 95 123 174 235 254 263 277 295 352 6
268 205 185 228 250 214 222 275 322 347 355 347 27 14 321 342 337 256 234 251 286 229 209 229 229 215 214 223 225 218 210 207 213 216 207 200 198 203 205 199 194 188 186 187 185 183 181 178 184 186 180 174 173 174 173 170 166 164 163 162 162 152 145 147 144 133 125 125 108 76 47 26 3 357 11 24 37 59 64 54 49 46 45 41 39 48 59 64 66 67 65 55 22 327 127 74 38
320 241 199 203 220 229 248 295 345 20 359 326 32 29 303 307 263 252 217 207 238 221 206 226 223 207 206 216 223 218 213 210 218 225 220 209 201 203 208 204 198 194 192 191 189 188 186 184 188 194 194 187 182 181 180 180 178 176 175 174 175 166 153 147 138 127 119 112 96 83 77 63 54 54 58 68 73 79 83 75 65 62 62 62 60 61 63 59 55 53 50 41 37 37 42 64 54
349 289 213 191 155 170 251 296 43 46 285 294 46 105 259 313 315 270 246 214 227 223 233 235 218 214 218 214 217 214 207 203 214 227 225 215 205 203 210 208 203 200 197 194 192 192 193 191 193 197 198 195 188 184 185 186 186 187 189 190 189 180 161 140 129 122 115 112 103 93 88 79 70 69 71 73 72 74 78 75 74 76 73 69 65 60 58 54 50 49 46 42 40 35 32 42 40
267 299 51 132 136 198 227 139 105 238 260 316 17 104 187 305 293 283 256 190 237 250 253 255 229 223 226 219 214 210 206 201 207 216 215 214 209 206 212 213 212 209 202 196 193 195 196 195 196 200 202 200 194 191 191 192 194 194 190 183 173 169 159 138 128 121 113 115 110 98 89 81 70 63 66 69 69 71 74 75 77 77 72 64 57 53 51 48 44 42 42 43 41 38 37 41 42
255 295 303 194 208 210 186 119 144 306 341 312 319 51 112 272 280 312 46 117 219 247 244 244 232 225 225 222 218 210 204 199 204 214 212 209 209 209 212 213 215 215 208 200 196 196 197 196 198 203 205 205 200 199 198 195 198 196 184 173 158 147 145 133 125 119 113 114 108 94 78 66 55 47 50 54 57 60 60 62 61 58 56 51 43 39 36 29 25 23 20 22 25 30 36 39 45
269 314 353 83 54 62 80 107 131 34 12 250 269 285 156 271 291 348 40 83 221 248 249 242 235 231 227 223 218 210 202 198 204 213 209 203 205 207 210 209 209 213 212 206 200 197 196 197 199 201 203 204 201 200 201 196 193 189 176 167 157 145 139 132 126 120 113 109 98 80 57 48 43 42 52 59 61 56 48 42 32 28 26 24 22 19 17 14 13 14 13 13 14 18 23 30 35
291 5 14 17 21 29 43 51 100 73 284 246 249 220 140 263 288 253 124 327 249 251 272 264 248 241 235 229 219 206 200 200 199 203 203 197 197 199 202 203 203 208 211 207 201 198 196 197 197 197 199 201 201 199 198 191 184 182 171 161 155 145 138 136 133 124 115 107 92 75 61 53 49 58 70 72 71 67 58 48 35 29 24 19 22 23 23 25 22 21 19 13 12 13 14 19 23
17 62 32 16 355 2 21 0 53 135 260 265 267 277 104 162 280 329 304 316 330 300 297 298 280 255 239 232 224 208 199 197 190 193 195 182 179 184 189 194 198 203 206 203 199 196 196 196 195 195 195 197 198 196 192 184 175 172 165 154 149 141 136 136 134 125 117 109 93 82 72 57 55 71 77 74 76 73 63 58 51 45 40 35 38 40 37 34 28 22 16 9 5 1 357 355 355
27 62 58 47 358 346 346 311 264 200 248 285 311 351 71 197 247 357 339 342 359 343 318 315 307 292 268 242 227 208 195 194 190 190 189 179 176 178 181 188 194 199 201 200 198 195 194 195 195 195 194 194 194 192 188 179 171 166 160 151 145 138 132 130 129 123 117 111 99 91 76 62 68 74 69 64 66 58 51 55 54 46 38 32 31 35 36 35 28 16 7 1 354 349 345 342 338
17 36 86 90 87 34 304 278 308 266 265 300 321 322 299 248 1 5 344 328 341 346 339 330 323 318 303 274 228 196 193 196 195 193 190 187 183 182 187 193 195 198 199 198 197 194 192 193 195 195 194 191 190 190 186 178 169 164 158 151 146 141 135 130 128 124 118 113 106 92 75 76 80 69 58 59 61 56 55 54 45 31 19 9 5 5 10 22 22 10 1 354 347 342 341 341 339
1 258 113 115 140 141 217 242 280 310 299 307 321 315 265 182 357 355 342 326 350 5 359 1 2 349 334 323 290 204 202 197 193 194 196 197 191 187 189 195 198 199 199 198 195 193 193 194 194 194 192 190 188 189 186 178 170 164 159 153 147 141 137 134 134 129 118 111 105 88 85 94 90 72 66 64 58 53 51 39 26 17 10 6 1 356 354 353 352 347 343 339 332 322 317 323 328
308 352 73 91 170 153 140 184 197 279 322 308 303 272 226 162 226 354 8 5 9 13 7 11 12 3 4 3 349 324 274 236 204 191 187 187 187 181 175 178 190 195 196 198 198 196 195 195 195 195 194 191 189 188 185 180 173 167 163 156 149 144 141 143 146 139 122 109 101 94 105 111 98 83 75 53 34 28 21 14 11 11 10 7 4 0 356 349 345 341 336 331 323 310 295 293 301
302 39 69 254 163 122 116 276 275 86 115 283 278 235 330 352 299 354 12 12 7 9 9 10 7 6 12 8 358 350 334 324 295 179 157 146 147 151 161 173 179 188 197 201 203 203 201 199 197 195 194 193 192 191 188 182 177 173 168 162 158 154 150 151 156 150 136 116 106 117 132 130 109 102 89 21 8 4 2 3 5 7 5 1 356 352 348 343 340 337 334 329 324 315 296 283 285
73 45 215 254 28 79 107 91 21 52 174 264 280 191 342 349 251 339 2 5 357 357 0 1 2 9 9 2 2 360 352 350 351 117 135 149 144 141 150 174 204 216 211 203 202 205 207 206 202 197 195 195 195 195 193 188 181 176 173 171 170 168 162 161 164 161 154 140 125 152 163 166 173 183 208 328 338 347 355 357 356 355 351 346 343 341 339 338 337 335 332 328 323 320 309 292 279
81 44 204 109 61 47 55 91 171 188 194 269 305 229 59 351 261 327 345 347 343 342 346 351 356 3 359 351 356 359 1 3 357 0 32 120 125 149 168 189 232 243 229 208 203 207 210 210 208 202 199 199 198 198 197 193 187 182 179 178 180 180 178 179 180 180 178 172 167 181 186 196 206 212 229 262 287 317 333 336 334 333 333 333 335 337 338 339 340 338 335 330 322 318 310 299 274
29 21 13 56 127 153 137 146 157 137 192 269 326 339 347 235 264 314 324 328 331 329 333 337 336 340 343 342 347 352 359 2 355 344 315 3 13 251 227 211 229 244 239 223 213 211 212 212 209 203 199 200 200 200 200 198 193 191 188 187 191 193 193 194 197 197 195 194 198 200 207 215 216 223 234 237 251 275 293 307 314 318 326 330 332 336 338 339 340 338 335 328 319 314 309 305 294
7 22 12 356 343 44 75 2 74 107 169 182 105 306 276 266 305 313 306 314 315 307 314 318 318 322 325 333 341 344 349 351 350 341 299 226 231 263 264 252 252 254 247 236 224 214 214 213 205 196 195 200 202 201 203 204 201 199 197 198 202 205 205 204 206 209 208 209 218 223 224 223 224 231 234 234 240 250 267 289 305 315 324 328 331 334 336 337 336 334 331 325 320 318 318 321 318
52 43 40 8 334 14 45 344 331 64 159 182 150 266 271 259 285 293 298 315 315 306 306 313 319 321 318 324 330 326 333 338 337 335 307 269 241 238 253 262 272 267 255 247 240 229 218 203 186 189 201 206 206 205 206 209 211 208 207 210 211 213 214 213 213 214 214 217 225 233 230 226 229 233 232 233 235 239 260 284 304 318 324 327 331 334 335 335 335 334 332 330 332 334 334 335 332
Height
773 774 774 774 773 773 775 777 791 799 800 811 811 809 798 787 788 787 785 784 783 778 771 772 771 771 773 777 780 781 782 783 785 794 796 782 774 775 775 775 775 776 777 778 780 781 781 782 783 783 784 785 786 787 787 788 789 789 790 791 791 792 793 794 795 796 797 798 800 802 803 804 805 805 806 807 808 809 810 810 811 812 813 815 816 817 818 819 819 819 820 821 821 822 823 824 825
773 774 773 774 773 774 780 781 799 809 807 816 812 806 795 787 790 786 784 785 782 775 769 770 771 771 772 774 776 780 783 781 779 782 781 777 776 776 775 776 776 776 777 778 779 781 781 782 782 783 784 785 785 786 787 788 790 790 791 792 792 793 794 795 796 796 797 799 800 802 804 806 807 807 807 807 808 809 810 811 811 812 814 815 816 817 818 819 820 820 821 821 822 823 824 824 825
773 774 773 774 774 775 782 785 801 814 813 816 809 801 795 789 787 782 782 780 775 770 768 771 773 775 775 778 778 782 785 780 777 778 778 777 777 776 776 776 776 777 777 777 778 779 780 780 781 782 783 784 785 785 787 788 789 791 792 792 793 794 795 796 796 798 798 799 800 802 804 806 807 808 808 808 809 810 810 811 812 813 814 815 816 818 819 820 820 821 821 821 822 823 824 825 826
773 773 773 773 777 780 786 793 802 809 812 815 807 796 790 786 782 781 779 773 771 770 770 772 776 777 776 781 780 782 784 779 777 776 777 777 776 776 776 776 776 777 777 777 778 778 779 780 780 781 782 783 784 785 786 787 789 790 792 793 794 794 795 796 797 798 799 800 800 801 803 805 807 809 810 810 810 810 811 812 813 814 814 816 817 818 819 820 821 822 822 822 823 824 825 826 826
773 773 773 772 780 785 789 800 806 807 806 806 800 789 785 782 780 781 777 771 770 771 771 773 779 778 776 779 780 782 782 779 777 775 777 776 776 776 776 776 776 777 777 778 778 779 779 780 781 782 782 783 784 785 786 787 789 790 791 793 794 795 796 796 797 797 799 800 800 800 801 803 805 808 810 811 811 811 812 812 813 814 815 817 817 819 820 821 821 822 822 823 824 825 826 826 827
773 773 773 773 780 784 792 804 807 806 798 795 792 785 783 780 780 780 776 772 769 769 769 771 777 778 779 779 778 780 780 779 777 775 776 776 776 776 776 776 777 777 778 779 779 780 781 782 783 784 784 784 784 784 785 786 788 789 791 792 794 795 796 796 797 797 798 799 799 800 801 802 803 806 809 811 812 812 812 813 814 815 816 817 818 819 820 821 822 823 823 824 825 826 826 827 827
772 774 776 778 783 786 798 805 804 805 795 790 789 782 781 779 778 779 778 776 772 769 769 772 772 775 781 779 778 780 777 777 776 776 776 776 776 776 776 777 777 778 779 780 780 781 782 783 785 786 786 785 784 784 785 786 787 788 790 792 793 795 796 796 797 798 799 800 800 800 800 802 803 804 807 810 812 813 813 814 814 815 817 818 818 819 820 821 822 823 824 825 826 826 827 828 828
772 776 781 784 792 796 804 807 804 804 795 789 786 780 779 778 777 778 779 778 774 771 771 773 771 776 780 778 782 781 777 777 776 777 777 776 777 777 777 778 778 779 780 781 781 782 783 785 786 787 787 787 786 786 786 786 786 788 789 791 793 794 795 796 797 799 800 801 801 800 800 801 803 804 806 808 811 813 814 814 815 816 817 818 818 820 821 822 823 824 825 826 827 827 828 829 829
772 777 783 788 797 803 806 807 804 799 793 787 782 778 775 774 774 776 777 776 772 771 773 772 772 779 782 781 784 781 778 779 777 777 777 777 778 778 779 779 781 781 782 782 782 784 784 785 787 788 789 789 790 790 791 790 788 788 789 791 793 794 795 796 797 799 801 802 802 801 800 801 803 805 806 808 810 812 814 815 815 816 817 818 819 820 821 823 823 824 826 826 827 828 829 829 830
775 779 785 792 800 807 809 807 802 795 788 783 779 775 772 771 772 772 773 773 770 770 772 770 774 780 781 785 785 781 780 779 777 778 778 779 779 780 781 781 782 782 783 783 783 784 785 785 787 788 789 791 792 793 794 793 791 789 790 791 793 794 795 797 797 799 801 802 803 802 800 800 802 805 806 808 810 812 814 815 816 816 817 818 819 820 821 823 824 825 826 827 828 829 829 830 831
781 783 785 796 805 810 810 805 799 792 786 783 779 771 769 768 768 770 769 771 770 771 772 771 778 780 781 785 784 781 780 779 778 779 780 780 781 781 782 783 783 783 783 783 784 785 785 786 786 787 788 789 791 791 793 794 794 791 791 792 793 795 796 797 798 799 801 803 804 804 802 800 802 804 806 808 810 812 814 815 816 817 817 818 819 820 822 823 825 826 827 827 828 829 829 831 831
784 788 788 799 807 807 807 804 798 792 787 783 776 767 765 764 765 767 768 772 772 773 773 773 777 776 783 787 782 780 779 779 780 780 781 781 782 783 784 784 784 784 784 784 785 785 786 787 787 788 788 789 790 792 793 794 795 793 792 793 794 795 796 798 798 800 802 803 804 805 804 802 802 804 806 808 810 812 813 815 816 817 818 819 820 821 822 824 825 826 827 827 828 829 830 831 832
784 790 791 799 806 804 803 803 798 793 787 780 775 767 765 765 765 765 767 773 773 775 775 773 773 774 783 786 780 779 780 781 781 781 782 782 783 784 784 785 785 785 785 785 786 786 787 787 788 789 789 790 791 793 794 794 794 793 793 794 795 796 797 798 800 801 803 805 805 806 805 804 803 805 806 808 810 812 813 815 816 817 818 819 820 821 823 824 825 826 827 828 829 830 831 832 832
782 787 789 799 807 803 801 800 795 795 788 777 774 769 767 770 769 765 766 774 776 776 774 771 772 776 784 785 782 780 780 782 782 783 783 784 784 785 786 786 786 786 786 787 787 787 787 788 788 789 790 791 791 792 793 793 793 793 793 794 796 798 800 801 802 804 806 808 807 807 807 806 805 806 807 809 810 812 813 815 816 818 819 820 821 822 823 824 825 826 828 829 830 831 831 832 832
781 785 788 798 804 802 800 797 793 796 788 775 774 771 771 772 769 767 767 774 777 773 771 771 772 778 782 783 782 779 780 782 782 784 784 785 785 786 787 787 787 787 787 788 788 788 788 789 789 790 790 790 791 791 792 792 793 793 794 796 798 801 803 804 805 806 808 811 809 808 808 808 807 807 808 810 811 812 813 814 816 818 820 821 822 823 824 824 825 827 828 829 830 831 832 832 832
780 784 791 798 803 804 800 796 794 796 786 776 775 771 773 774 770 771 771 771 774 773 773 775 775 777 779 778 778 777 779 782 783 784 785 786 786 787 787 787 788 788 788 788 789 790 790 790 790 790 790 790 791 791 792 792 793 794 795 798 800 802 804 805 806 807 808 812 812 809 809 809 808 808 809 810 811 812 814 815 816 818 820 821 822 823 824 825 826 827 828 829 830 831 832 832 833
779 784 796 802 804 804 798 793 792 790 781 777 777 773 775 778 774 773 771 770 775 777 777 779 777 776 777 777 778 777 780 782 783 785 785 786 786 787 788 788 789 788 789 789 790 791 790 791 791 791 791 791 791 792 793 793 794 795 797 799 802 803 804 805 806 808 809 813 815 811 809 809 809 809 810 811 812 813 814 816 817 818 820 822 823 824 825 826 826 827 828 829 829 830 831 832 833
782 791 800 802 803 799 790 787 784 781 778 777 778 776 777 779 777 774 773 777 779 780 780 780 778 777 778 778 779 779 780 782 783 785 786 787 787 788 789 789 789 789 790 790 791 792 792 792 792 792 792 792 792 793 794 795 796 797 799 802 803 803 805 806 807 810 811 813 816 814 810 810 810 810 810 811 812 813 815 816 818 819 821 822 823 824 825 826 827 827 828 829 829 830 831 832 833
784 794 800 799 796 790 782 779 777 777 777 776 777 777 777 778 777 775 777 785 783 781 783 782 780 779 779 779 779 780 781 782 784 785 786 787 788 788 789 790 790 790 791 791 792 793 793 793 793 793 793 793 793 794 795 796 797 798 801 803 803 803 805 806 807 811 812 814 816 815 813 811 811 811 811 812 813 814 815 816 818 819 821 822 823 825 825 826 827 827 828 829 829 830 831 831 832
784 791 797 793 786 783 778 777 775 774 775 775 777 777 778 779 776 776 780 787 786 783 783 783 782 780 780 780 780 780 781 783 784 786 787 788 789 789 790 790 791 791 792 792 793 793 794 793 794 794 794 794 795 795 796 797 799 800 802 804 804 804 805 806 807 810 812 814 816 814 813 812 812 812 812 813 814 815 815 817 818 819 821 822 823 825 825 826 827 827 828 828 829 830 830 831 832
785 787 791 786 782 783 775 774 773 773 775 776 777 776 778 779 777 778 781 787 790 786 779 776 777 777 779 780 780 781 781 784 785 787 788 788 789 790 790 791 791 792 792 793 794 794 794 794 794 794 795 795 795 796 797 798 800 801 803 804 805 805 805 806 807 809 811 814 815 813 812 812 812 812 813 813 814 815 816 817 818 819 821 822 823 824 825 826 826 827 827 828 829 829 830 830 831
784 784 783 780 782 782 772 771 772 773 775 775 778 776 775 778 779 779 778 782 784 778 774 772 773 774 777 778 780 781 783 785 786 788 789 789 790 790 791 791 792 792 793 794 794 795 795 795 795 795 795 796 797 797 798 800 801 802 803 804 805 805 806 806 808 809 810 812 814 813 812 812 812 813 814 814 815 815 816 817 818 819 820 821 823 824 825 825 826 826 827 828 828 829 829 829 830
784 783 779 779 780 778 771 770 770 771 774 775 777 774 774 780 781 780 777 777 775 771 771 773 773 775 776 778 781 782 784 785 786 788 788 789 789 790 791 791 792 792 793 794 794 795 795 796 796 796 796 797 797 798 799 800 801 802 803 804 804 805 806 807 809 809 810 811 812 813 813 812 812 813 815 815 815 816 817 817 818 819 819 821 822 823 824 825 825 826 826 827 827 828 828 828 829
784 783 779 777 777 775 770 770 770 770 772 772 774 774 775 779 779 780 778 776 775 771 771 773 774 776 778 781 783 784 785 786 787 788 789 789 790 790 791 791 792 792 793 794 795 795 795 796 796 797 797 798 798 799 800 801 801 802 803 804 805 806 807 808 809 809 810 811 812 813 814 813 812 814 815 816 816 817 818 818 818 819 819 820 820 822 823 824 825 825 826 826 826 827 827 828 828
783 782 777 775 774 772 770 771 770 768 769 769 773 774 774 776 776 779 779 777 775 773 772 774 776 778 781 783 784 785 786 786 787 788 789 790 790 791 791 792 792 793 793 794 794 795 795 796 797 797 798 799 799 800 801 801 802 803 803 804 805 806 807 808 808 809 810 810 811 813 813 812 812 814 815 815 816 817 818 819 819 819 819 819 820 821 822 823 824 824 825 825 826 826 827 827 827
779 777 776 774 772 770 770 770 767 767 768 768 771 774 774 775 777 779 779 778 776 775 774 776 778 780 783 784 785 786 786 787 787 788 789 790 791 791 792 792 792 793 794 794 794 795 795 796 797 798 799 799 800 801 801 802 802 803 804 804 805 806 807 807 808 808 809 809 810 811 811 812 813 814 815 816 816 817 818 818 819 819 819 819 819 819 821 822 823 824 824 824 825 825 826 826 827
775 775 774 772 771 770 770 768 766 767 768 767 770 774 776 777 778 778 777 777 777 776 777 779 780 782 784 784 785 786 787 787 787 788 788 789 790 791 792 793 793 793 794 794 794 795 795 796 797 798 799 799 800 801 801 802 803 804 804 805 805 806 807 807 808 808 809 809 810 810 810 812 814 815 816 816 816 816 817 818 818 818 818 817 817 818 819 820 822 822 823 823 824 824 824 825 826
773 774 774 772 771 770 770 768 767 768 767 765 769 776 780 780 777 774 773 776 777 777 779 781 782 784 784 785 786 786 787 787 788 787 787 788 789 790 791 792 793 794 794 794 794 795 796 796 797 798 799 799 800 801 802 802 803 804 804 805 806 807 807 808 808 808 808 809 810 810 810 812 814 816 816 816 815 816 816 817 817 817 817 816 816 816 817 819 820 821 822 822 822 823 823 824 824
773 774 775 772 769 768 767 768 769 769 767 764 767 781 786 780 774 771 772 776 778 780 782 783 783 784 785 785 786 786 787 787 787 787 787 788 788 790 791 792 793 794 794 794 794 795 796 796 797 798 799 800 800 801 802 803 804 804 805 805 806 807 808 808 808 808 809 810 811 812 811 813 814 815 815 815 815 815 815 816 816 816 818 818 817 816 817 818 819 820 821 821 821 822 822 823 823
773 775 777 776 775 772 767 767 768 768 769 763 766 784 787 778 772 772 775 777 778 782 783 784 784 784 785 785 786 786 787 787 787 787 787 787 789 789 790 792 793 793 793 793 793 794 795 796 797 798 799 800 801 801 802 803 804 805 805 806 806 807 808 809 809 809 809 810 811 812 812 812 813 814 814 815 815 815 815 815 816 816 818 820 820 819 818 818 819 819 820 820 821 821 821 822 822
776 777 781 786 785 776 767 767 767 766 768 763 767 783 781 773 772 773 776 776 777 781 783 784 784 784 784 784 785 786 786 787 786 787 787 787 788 789 789 791 792 792 792 792 793 794 795 796 797 798 799 800 801 802 802 803 804 805 805 806 807 807 808 809 810 810 810 810 811 812 811 812 812 813 814 814 815 815 815 815 815 816 817 819 821 821 820 819 819 819 819 819 820 820 821 821 821
781 783 786 791 790 779 769 768 768 766 767 765 769 782 781 772 771 773 775 776 777 780 782 784 783 783 784 784 785 786 786 786 786 787 787 787 788 789 790 791 792 792 791 792 792 793 795 796 797 798 799 801 801 802 803 804 805 806 806 806 807 808 808 809 810 811 811 811 812 812 812 812 812 813 814 814 815 815 815 815 815 816 817 819 821 822 822 821 819 818 819 819 819 820 820 820 820
787 789 787 788 787 784 775 767 767 767 767 768 768 777 779 771 769 773 776 776 779 781 782 783 783 783 784 784 785 785 786 786 786 786 786 787 788 789 790 791 792 792 791 791 792 793 794 795 796 798 799 801 802 802 803 804 805 806 806 807 807 808 809 810 811 812 812 812 812 813 812 813 813 813 814 814 815 815 815 815 815 816 817 819 820 821 822 822 820 818 818 819 819 819 820 820 820
790 791 789 789 789 787 781 771 767 767 768 770 770 773 772 766 768 775 775 776 779 780 781 782 783 784 783 784 785 785 786 786 785 784 786 787 788 789 790 790 791 792 792 792 793 793 793 795 796 798 799 801 803 803 804 805 806 807 807 807 808 808 809 810 811 812 813 813 813 813 813 813 813 813 814 814 815 815 815 814 814 815 817 819 820 820 821 822 821 819 818 819 819 820 821 820 819
788 789 788 790 790 788 786 777 768 767 769 771 775 775 771 769 773 775 773 774 777 777 778 780 781 783 783 784 784 785 787 786 784 784 786 788 788 789 789 790 791 792 793 793 794 794 793 795 796 797 799 801 803 804 804 805 807 808 808 808 808 809 810 810 811 812 813 813 813 813 813 813 813 813 814 814 815 815 815 815 815 817 818 821 821 820 820 821 820 819 819 820 820 821 822 821 820
787 789 789 790 790 787 784 777 768 768 771 772 774 774 771 771 774 776 774 775 778 778 778 780 781 782 783 784 784 786 787 785 783 784 787 788 788 789 789 790 791 792 793 794 795 795 794 795 796 797 799 801 803 804 805 806 807 808 809 809 809 809 810 811 812 813 813 814 814 814 813 814 814 814 814 814 815 815 816 816 817 818 819 820 820 819 820 820 819 818 819 820 820 821 822 821 820
787 788 788 790 793 788 779 774 767 767 771 769 767 769 771 771 771 774 776 777 780 780 779 780 780 782 782 783 784 786 786 784 784 785 786 788 788 789 789 790 791 792 793 794 795 796 796 795 796 797 799 801 803 804 805 806 807 809 809 810 810 810 811 812 812 813 814 814 814 814 814 814 814 814 815 815 815 816 817 818 818 819 819 818 818 818 819 819 817 817 818 820 820 820 821 820 820
785 787 788 790 793 786 775 771 767 767 771 768 766 768 771 772 770 773 777 778 777 774 776 777 777 780 781 782 784 784 784 783 784 785 785 787 788 789 790 790 790 791 792 793 794 796 797 797 797 797 798 800 803 804 806 807 808 809 810 811 811 812 812 813 813 814 814 815 815 815 815 815 815 815 815 815 816 817 817 818 818 818 818 817 817 817 817 817 817 817 818 819 819 819 819 819 819
786 789 791 789 789 785 775 769 767 769 771 768 767 769 769 772 773 775 775 771 769 768 771 772 773 777 778 779 781 782 783 783 783 784 784 786 787 788 789 789 790 790 791 793 794 796 798 799 799 798 799 800 802 804 806 807 808 809 810 811 812 813 813 814 814 815 815 815 815 815 815 815 815 815 815 815 816 816 817 817 817 817 817 817 816 816 816 816 817 817 817 817 818 818 818 818 818
787 789 790 788 785 787 781 770 766 769 771 769 769 769 772 778 778 776 774 769 768 770 771 773 773 775 776 776 778 780 782 783 783 783 783 784 786 787 788 789 789 790 791 792 794 795 797 799 800 800 800 800 802 803 805 807 808 809 810 811 812 813 814 815 815 815 816 816 816 816 816 816 815 815 816 816 816 816 816 816 816 816 816 816 816 815 815 815 815 816 816 816 816 817 817 818 818
784 784 786 785 780 782 781 774 770 770 772 773 770 769 773 781 782 777 776 775 773 772 773 774 773 774 776 777 778 779 781 782 783 783 782 782 783 785 787 788 789 789 789 791 792 794 796 798 800 801 802 801 802 803 804 806 807 809 810 811 813 814 815 815 816 816 816 817 817 817 816 816 816 816 816 816 816 816 816 815 815 815 815 816 816 815 814 814 815 815 815 815 816 816 817 817 817
783 779 779 777 774 775 777 777 776 775 777 775 774 777 779 780 782 780 779 779 776 774 775 773 774 775 776 777 777 778 780 781 783 783 783 783 783 785 787 787 788 788 788 790 792 794 796 798 800 802 803 803 803 803 804 806 807 808 810 811 812 813 815 816 816 817 817 817 817 818 818 817 817 816 816 816 816 816 816 816 815 815 815 815 816 815 815 815 815 815 815 816 816 816 816 817 817
785 780 778 776 775 778 777 776 778 780 781 778 776 784 785 778 775 778 782 781 778 776 776 773 775 776 776 776 776 777 778 780 781 783 784 784 783 784 785 786 787 788 788 790 791 793 795 797 799 801 802 803 803 803 804 805 806 808 809 811 812 813 814 815 816 817 817 818 818 818 819 818 818 818 817 817 816 816 816 816 816 816 815 815 815 815 815 815 815 815 815 816 816 816 816 816 817
786 780 780 779 777 779 777 775 776 779 779 778 777 780 786 780 776 782 785 783 784 781 778 776 775 775 774 774 775 775 776 778 779 781 782 783 783 783 785 787 788 789 789 790 791 793 795 796 799 800 802 803 804 804 804 805 806 807 809 810 812 813 814 815 816 817 817 818 819 819 819 819 819 819 818 818 818 817 817 817 817 816 815 815 815 815 815 815 815 816 816 817 817 816 815 815 816
782 779 781 781 779 778 778 777 777 780 782 783 779 779 787 785 777 782 785 781 784 782 776 775 773 772 772 772 772 772 773 775 777 779 780 781 782 783 785 787 789 790 790 790 791 792 794 796 798 800 802 803 803 804 805 805 806 807 808 809 811 813 814 815 816 817 818 818 819 819 819 820 820 819 819 819 819 818 818 818 817 816 816 815 815 815 815 815 816 816 817 817 817 816 815 815 815
781 779 781 781 782 781 781 782 779 784 791 787 780 779 787 786 775 777 782 778 779 777 774 774 771 770 769 768 769 770 772 773 774 776 778 779 781 783 785 786 787 789 790 791 791 792 794 796 797 799 801 803 803 804 805 805 806 807 808 809 810 812 814 815 816 816 817 818 819 819 819 819 819 819 819 819 819 819 819 818 817 817 816 816 816 815 815 816 816 816 817 817 817 816 816 815 815
781 781 780 778 783 784 787 788 783 790 796 788 783 782 786 789 781 777 779 777 774 772 770 770 769 768 767 765 766 767 769 770 772 774 777 778 780 782 784 785 786 788 789 790 791 792 794 795 797 798 800 802 803 804 804 805 806 807 807 808 810 812 813 814 815 816 817 818 819 819 819 820 819 819 819 819 819 819 819 819 818 818 817 817 816 816 816 816 816 817 817 817 816 816 816 816 815
784 785 785 784 787 786 788 791 790 798 799 788 788 789 787 789 787 781 779 777 776 774 771 768 766 766 764 762 762 764 766 768 770 773 775 777 779 780 782 784 786 787 788 789 790 791 793 794 796 798 800 802 803 804 805 805 806 806 807 808 810 811 813 814 815 816 817 818 818 819 820 820 820 820 820 819 819 819 819 819 819 819 818 818 817 817 817 817 817 817 817 817 816 816 816 815 815
788 789 791 798 805 802 799 799 799 801 798 791 792 792 788 788 789 790 788 782 780 778 776 774 770 766 764 761 761 763 765 767 768 770 772 774 776 777 780 782 783 785 786 787 788 789 791 793 795 796 798 801 803 804 804 805 805 806 807 808 809 811 813 814 816 816 817 818 819 819 820 820 820 820 820 820 820 820 820 819 819 819 819 818 818 817 817 817 817 817 816 816 816 816 815 815 815
796 796 796 805 817 822 818 813 810 806 799 794 794 794 790 788 791 796 794 788 785 781 778 777 774 770 766 762 761 762 764 765 767 768 770 771 772 774 776 779 781 783 784 786 787 788 789 792 794 795 798 800 802 803 804 805 805 806 807 808 809 811 812 814 815 816 817 818 818 819 820 820 820 821 821 820 820 820 820 820 819 819 819 819 818 818 818 817 817 817 816 816 816 815 815 815 814
802 801 800 804 815 822 822 821 820 817 808 799 795 796 794 792 796 797 793 789 786 782 779 776 774 772 768 764 763 764 764 765 766 768 769 770 771 773 776 780 782 784 785 786 787 788 789 791 792 794 796 799 801 803 804 804 804 805 807 808 809 810 812 813 815 816 816 817 818 819 819 820 820 821 821 821 821 820 820 820 820 820 819 819 819 818 818 817 817 817 816 816 815 815 815 814 814
805 804 804 808 810 812 819 824 825 825 822 811 801 798 795 794 794 793 791 789 785 784 781 778 777 775 772 771 770 769 769 768 768 768 770 771 773 775 778 780 783 785 786 787 788 788 789 790 791 793 795 798 800 802 803 804 804 805 806 807 809 810 811 813 814 815 816 817 818 819 819 820 820 821 821 821 821 821 820 820 820 819 819 819 819 818 818 817 817 817 816 815 815 814 813 813 813
805 806 808 810 808 808 816 823 826 828 829 821 809 801 797 797 795 793 793 793 790 790 788 786 785 782 779 779 777 775 773 772 771 770 771 772 774 776 778 779 781 782 783 784 786 788 789 790 790 792 794 797 799 801 802 803 803 804 806 807 808 809 810 812 813 814 815 816 817 818 819 819 820 820 820 820 820 820 820 820 820 819 819 819 818 818 818 817 817 816 815 815 814 813 812 812 811
805 809 810 810 810 810 814 820 825 828 827 821 813 808 806 806 803 800 800 801 799 796 794 793 790 787 786 785 783 780 776 774 773 772 772 772 773 775 777 780 783 783 780 778 781 785 788 790 790 791 793 795 797 800 801 802 803 803 805 806 808 809 810 811 812 813 815 816 817 817 818 819 819 819 819 820 820 820 820 820 819 819 818 818 818 817 817 816 816 815 814 814 813 812 811 811 810
805 809 809 811 815 816 817 821 823 825 826 821 814 813 816 816 814 811 808 807 805 802 799 797 794 792 792 789 786 784 781 778 777 775 775 774 774 775 775 777 781 783 782 779 779 782 786 789 790 790 792 794 797 799 800 801 802 803 804 805 807 808 809 810 811 813 814 815 816 816 817 818 818 819 819 819 819 819 819 819 818 818 818 817 817 816 816 815 815 814 813 813 812 811 810 810 809
806 808 809 811 815 817 820 821 821 822 825 825 817 814 817 819 818 816 813 810 808 806 803 800 797 796 794 792 789 787 784 782 780 778 777 776 777 778 777 774 776 781 783 782 780 780 783 787 789 790 792 794 796 798 800 801 801 802 803 805 806 807 808 810 811 812 813 814 815 815 816 817 817 818 818 818 818 818 818 818 818 817 817 816 816 815 815 814 814 813 812 811 811 810 809 809 808
815 816 819 820 818 817 820 821 822 822 824 829 826 818 816 817 815 814 813 811 810 808 805 802 799 796 794 793 791 788 786 784 781 778 776 774 774 776 777 777 778 781 783 782 781 779 781 785 788 790 791 793 795 796 799 800 801 802 803 804 805 807 808 809 810 811 812 813 814 814 815 816 816 817 817 817 817 817 817 817 817 816 816 815 815 814 813 813 812 811 811 810 809 809 808 808 808
822 823 826 830 828 825 824 824 824 823 823 827 829 822 817 816 814 813 812 811 809 807 805 803 799 796 793 792 790 789 787 785 782 779 776 773 772 773 774 775 777 779 780 782 783 782 781 784 787 790 791 792 795 797 798 801 801 802 802 803 805 806 807 808 809 810 811 812 813 813 814 814 815 815 816 816 816 816 816 816 815 815 815 814 813 813 812 811 810 810 809 809 808 808 807 807 807